Home > Weather > Pueblo > Past weeks

Flag for USA Past Weather in Pueblo, Colorado, USA — Yesterday and Last 2 Weeks

Now
66 °F

Clear.


Feels Like: 66 °F
Forecast: 63 / 97 °F
Wind: 7 mph from North

Location: Pueblo Memorial Airport

Current Time: Jul 27, 2016 at 7:33:19 AM

Latest Report: Jul 27, 2016 at 6:53 AM


Visibility: 10 mi

Pressure: 29.98 "Hg (25.36 "Hg at 1430m altitude)

Humidity: 81%

Dew Point: 60 °F

Location of PuebloLocation

Past Weather in Pueblo — Graph

°F

Pueblo Temperature Yesterday

Maximum temperature yesterday: 93 °F (at 2:53 PM)
Minimum temperature yesterday: 61 °F (at 5:53 AM)
Average temperature yesterday: 77 °F

High & Low Weather Summary for the Past Weeks

 TemperatureHumidityPressure
High103 °F (Jul 20, 4:53 PM)87% (Jul 26, 5:53 AM)30.13 "Hg (Jul 26, 5:53 AM)
Low57 °F (Jul 16, 5:53 AM)8% (Jul 15, 2:53 PM)29.60 "Hg (Jul 16, 6:53 PM)
Average81 °F40%29.88 "Hg
* Reported Jul 12 5:53 AM — Jul 27 5:53 AM, Pueblo, Weather by CustomWeather, © 2016

Note: Actual official high and low records may vary slightly from our data, if they occured in-between our weather recording intervals... More about our weather records

Advertising

Pueblo Weather History for the Previous 24 Hours

Scroll right to see more
 ConditionsComfort  
Time TempWeatherWind HumidityBarometerVisibility
5:53 AM
Wed, Jul 27
64 °FClear.6 mph84%29.97 "Hg10 mi
4:53 AM67 °FPassing clouds.7 mph79%29.96 "Hg10 mi
3:53 AM66 °FClear.7 mph81%29.95 "Hg10 mi
2:53 AM69 °FClear.5 mph76%29.92 "Hg10 mi
1:53 AM72 °FClear.14 mph66%29.91 "Hg10 mi
12:53 AM74 °FPassing clouds.9 mph57%29.91 "Hg10 mi
11:53 PM
Tue, Jul 26
77 °FClear.8 mph44%29.92 "Hg10 mi
10:53 PM81 °FPassing clouds.9 mph32%29.89 "Hg10 mi
9:53 PM79 °FClear.7 mph36%29.89 "Hg10 mi
8:53 PM82 °FSunny.9 mph31%29.88 "Hg10 mi
7:53 PM84 °FSunny.12 mph29%29.90 "Hg10 mi
6:53 PM86 °FSunny.14 mph25%29.90 "Hg10 mi
5:53 PM88 °FSunny.14 mph23%29.90 "Hg10 mi
4:53 PM87 °FSunny.18 mph25%29.90 "Hg10 mi
3:53 PM92 °FSunny.No wind25%29.87 "Hg10 mi
2:53 PM93 °FSunny.No wind20%29.85 "Hg10 mi
1:53 PM91 °FSunny.7 mph31%29.87 "Hg10 mi
12:53 PM90 °FSunny.N/A25%29.89 "Hg10 mi
11:53 AM85 °FSunny.No wind37%29.92 "Hg10 mi
10:53 AM79 °FSunny.3 mph47%29.96 "Hg10 mi
9:53 AM76 °FSunny.5 mph54%29.98 "Hg10 mi
8:53 AM71 °FSunny.No wind63%30.00 "Hg10 mi
7:53 AM65 °FSunny.No wind78%30.01 "Hg10 mi
Weather by CustomWeather, © 2016

See weather overviewHow to use our weather pages